Date String (YYYY-MM-DD hh:mm:ss) UTC,Instrument flags,absolute air pressure of the measurement (hPa),sample flow rate (lpm),inlet stack bypass flow (lpm),air temperature of the measurement (°C),ambient temperature measured by the external sensor (°C),aerosol sample conditioner tube jacket temperature (°C),OPC LED temperature (°C),internal box temperature (°C),relative humidity of the measurement (%),span deviation,mass concentration of particles derived from Lorenz-Mie calculation of OPC scattering (μg/m³),mass concentration of particles derived from Lorenz-Mie calculation of OPC scattering (μg/m³),mass concentration of particles derived from Lorenz-Mie calculation of OPC scattering (μg/m³)
DateTimeUTC,F1_M11,P_M11,Q1_M11,Q2_M11,T1_M11,T2_M11,T3_M11,T4_M11,T5_M11,U1_M11,ZSPAN_M11,X2_M11,X0_M11,X1_M11
2023-07-21 11:00:00,SystemResetWarning,0838.6,5.00,000.00,030.2,028.9,000.0,038.7,031.8,31.6,0000.0,0004.13,0007.57,0003.88
2023-07-21 11:01:00,SystemResetWarning,0838.6,5.00,000.00,030.3,028.6,000.0,038.7,031.8,31.8,0000.0,0004.11,0007.25,0003.86
2023-07-21 11:02:00,SystemResetWarning,0838.5,4.99,000.00,030.2,026.7,000.0,038.6,031.6,31.8,0000.0,0004.10,0007.29,0003.82
2023-07-21 11:03:00,SystemResetWarning,0838.5,5.01,000.00,030.1,025.4,000.0,038.4,031.3,32.1,0000.0,0004.07,0007.31,0003.80
2023-07-21 11:04:00,SystemResetWarning,0838.5,5.01,000.00,030.0,025.3,000.0,038.4,030.9,32.4,0000.0,0004.05,0007.18,0003.77
2023-07-21 11:05:00,SystemResetWarning,0838.6,5.01,000.00,029.8,025.6,000.0,038.4,030.9,32.7,0000.0,0004.00,0007.01,0003.75
2023-07-21 11:06:00,SystemResetWarning,0838.6,5.00,000.00,029.8,026.0,000.0,038.4,030.9,32.8,0000.0,0003.95,0006.71,0003.72
2023-07-21 11:07:00,SystemResetWarning,0838.6,5.00,000.00,029.7,026.4,000.0,038.4,031.0,32.8,0000.0,0003.94,0006.50,0003.72
2023-07-21 11:08:00,SystemResetWarning,0838.5,5.00,000.00,029.7,026.8,000.0,038.4,031.0,32.9,0000.0,0003.99,0006.22,0003.75
2023-07-21 11:09:00,SystemResetWarning,0838.6,4.98,000.00,029.7,027.1,000.0,038.4,031.1,32.9,0000.0,0004.01,0006.22,0003.78
2023-07-21 11:10:00,SystemResetWarning,0838.6,5.00,000.00,029.7,027.4,000.0,038.4,031.1,33.0,0000.0,0004.04,0006.26,0003.81
2023-07-21 11:11:00,SystemResetWarning,0838.6,5.02,000.00,029.7,027.6,000.0,038.3,031.2,33.1,0000.0,0004.05,0005.91,0003.82
2023-07-21 11:12:00,SystemResetWarning,0838.6,5.00,000.00,029.7,027.8,000.0,038.3,031.2,33.2,0000.0,0004.09,0006.08,0003.84
2023-07-21 11:13:00,SystemResetWarning,0838.6,5.00,000.00,029.7,027.9,000.0,038.3,031.2,33.1,0000.0,0004.11,0006.22,0003.86
2023-07-21 11:14:00,SystemResetWarning,0838.6,5.00,000.00,029.7,028.0,000.0,038.3,031.2,32.9,0000.0,0004.14,0006.39,0003.87
2023-07-21 11:15:00,SystemResetWarning,0838.7,5.00,000.00,029.7,028.1,000.0,038.3,031.2,33.0,0000.0,0004.15,0007.16,0003.89
2023-07-21 11:16:00,SystemResetWarning,0838.8,4.99,000.00,029.7,028.2,000.0,038.3,031.3,33.1,0000.0,0004.19,0007.46,0003.92
2023-07-21 11:17:00,SystemResetWarning,0838.8,5.00,000.00,029.8,028.3,000.0,038.3,031.3,33.2,0000.0,0004.23,0007.54,0003.94
2023-07-21 11:18:00,SystemResetWarning,0838.8,5.01,000.00,029.8,028.3,000.0,038.3,031.3,33.2,0000.0,0004.27,0007.62,0003.95
2023-07-21 11:19:00,SystemResetWarning,0838.8,5.01,000.00,029.8,028.4,000.0,038.3,031.3,33.2,0000.0,0004.26,0007.58,0003.97
2023-07-21 11:20:00,SystemResetWarning,0838.8,5.00,000.00,029.8,028.4,000.0,038.3,031.4,33.2,0000.0,0004.30,0007.75,0003.98
2023-07-21 11:21:00,SystemResetWarning,0838.8,5.00,000.00,029.8,028.4,000.0,038.3,031.4,33.1,0000.0,0004.33,0007.83,0004.00
2023-07-21 11:22:00,SystemResetWarning,0838.8,4.99,000.00,029.8,028.5,000.0,038.3,031.4,33.1,0000.0,0004.36,0007.89,0004.03
2023-07-21 11:23:00,SystemResetWarning,0838.8,5.00,000.00,029.9,028.5,000.0,038.3,031.4,33.1,0000.0,0004.38,0009.02,0004.05
2023-07-21 11:24:00,SystemResetWarning,0838.8,5.00,000.00,029.9,028.5,000.0,038.4,031.4,33.1,-000.1,0004.37,0008.94,0004.07
2023-07-21 11:25:00,SystemResetWarning,0838.8,5.00,000.00,029.9,028.5,000.0,038.4,031.4,33.1,-000.0,0004.39,0008.85,0004.10
2023-07-21 11:26:00,SystemResetWarning,0838.9,5.00,000.00,029.9,028.5,000.0,038.4,031.4,33.1,0000.3,0004.43,0008.46,0004.12
2023-07-21 11:27:00,SystemResetWarning,0838.9,5.00,000.00,029.9,028.6,000.0,038.4,031.4,33.1,0000.4,0004.46,0008.36,0004.13
2023-07-21 11:28:00,SystemResetWarning,0838.9,5.00,000.00,029.9,028.6,000.0,038.4,031.5,33.1,-000.3,0004.49,0008.39,0004.16
2023-07-21 11:29:00,SystemResetWarning,0838.8,4.99,000.00,029.9,028.6,000.0,038.4,031.5,33.1,-000.5,0004.51,0008.35,0004.18
2023-07-21 11:30:00,SystemResetWarning,0838.8,5.00,000.00,029.9,028.6,000.0,038.4,031.5,33.1,-000.4,0004.52,0008.35,0004.20
2023-07-21 11:31:00,SystemResetWarning,0838.8,5.00,000.00,030.0,028.6,000.0,038.4,031.5,33.0,0000.5,0004.52,0008.23,0004.21
2023-07-21 11:32:00,SystemResetWarning,0838.8,5.00,000.00,030.0,028.6,000.0,038.4,031.5,33.0,0000.4,0004.54,0008.24,0004.21
2023-07-21 11:33:00,SystemResetWarning,0838.8,5.00,000.00,030.0,028.6,000.0,038.4,031.5,33.1,0000.3,0004.55,0008.25,0004.22
2023-07-21 11:34:00,SystemResetWarning,0838.8,5.00,000.00,030.0,028.7,000.0,038.5,031.5,33.0,0001.5,0004.56,0006.94,0004.24
2023-07-21 11:35:00,SystemResetWarning,0838.8,5.01,000.00,030.0,028.7,000.0,038.5,031.6,33.0,0000.9,0004.58,0007.18,0004.25
2023-07-21 11:36:00,SystemResetWarning,0838.8,4.99,000.00,030.0,028.7,000.0,038.5,031.6,33.0,0000.3,0004.61,0007.27,0004.27
2023-07-21 11:37:00,SystemResetWarning,0838.8,5.00,000.00,030.0,028.7,000.0,038.5,031.6,33.0,0001.1,0004.62,0007.25,0004.31
2023-07-21 11:38:00,SystemResetWarning,0838.8,5.00,000.00,030.0,028.7,000.0,038.5,031.6,33.0,0000.7,0004.62,0007.05,0004.35
2023-07-21 11:39:00,SystemResetWarning,0838.8,5.01,000.00,030.1,028.7,000.0,038.5,031.6,32.9,0000.0,0004.64,0006.99,0004.38
2023-07-21 11:40:00,SystemResetWarning,0838.8,5.01,000.00,030.1,028.7,000.0,038.5,031.6,32.8,0000.0,0004.64,0007.09,0004.38
2023-07-21 11:41:00,SystemResetWarning,0838.8,5.00,000.00,030.1,028.8,000.0,038.5,031.6,32.8,0000.0,0004.68,0007.34,0004.39
2023-07-21 11:42:00,SystemResetWarning,0838.8,5.00,000.00,030.1,028.8,000.0,038.6,031.6,32.7,-000.0,0004.74,0007.44,0004.43
2023-07-21 11:43:00,SystemResetWarning,0838.8,4.99,000.00,030.1,028.8,000.0,038.6,031.7,32.7,-000.0,0004.76,0007.49,0004.47
2023-07-21 11:44:00,SystemResetWarning,0838.8,4.99,000.00,030.1,028.8,000.0,038.6,031.7,32.6,-000.2,0004.81,0007.62,0004.51
2023-07-21 11:45:00,SystemResetWarning,0838.8,5.01,000.00,030.1,028.8,000.0,038.6,031.7,32.5,-000.1,0004.83,0007.58,0004.54
2023-07-21 11:46:00,SystemResetWarning,0838.8,5.00,000.00,030.1,028.8,000.0,038.6,031.7,32.3,-000.6,0004.88,0007.56,0004.59
2023-07-21 11:47:00,SystemResetWarning,0838.8,5.01,000.00,030.1,028.8,000.0,038.6,031.7,32.2,-000.4,0004.92,0007.58,0004.61
2023-07-21 11:48:00,SystemResetWarning,0838.8,4.99,000.00,030.1,028.8,000.0,038.6,031.7,32.1,-000.4,0004.91,0007.50,0004.62
2023-07-21 11:49:00,SystemResetWarning,0838.9,4.99,000.00,030.1,028.8,000.0,038.6,031.7,32.1,-001.3,0004.93,0007.50,0004.63
2023-07-21 11:50:00,SystemResetWarning,0838.9,4.99,000.00,030.2,028.8,000.0,038.6,031.7,32.1,-001.2,0004.90,0007.51,0004.63
2023-07-21 11:51:00,SystemResetWarning,0838.9,5.00,000.00,030.2,028.8,000.0,038.7,031.7,32.1,-001.1,0004.88,0007.43,0004.63
2023-07-21 11:52:00,SystemResetWarning,0838.8,5.01,000.00,030.2,028.8,000.0,038.7,031.7,32.1,-000.8,0004.86,0007.26,0004.64
2023-07-21 11:53:00,SystemResetWarning,0838.8,5.00,000.00,030.2,028.8,000.0,038.7,031.7,31.9,-000.7,0004.80,0007.05,0004.62
2023-07-21 11:54:00,SystemResetWarning,0838.8,5.00,000.00,030.2,028.8,000.0,038.7,031.7,31.9,-000.5,0004.75,0006.79,0004.58
2023-07-21 11:55:00,SystemResetWarning,0838.8,5.01,000.00,030.2,028.8,000.0,038.7,031.7,31.8,-000.8,0004.65,0006.33,0004.52
2023-07-21 11:56:00,SystemResetWarning,0838.8,4.99,000.00,030.2,028.8,000.0,038.7,031.7,31.6,-000.5,0004.58,0006.92,0004.45
2023-07-21 11:57:00,SystemResetWarning,0838.8,4.99,000.00,030.2,028.8,000.0,038.7,031.7,31.6,-000.2,0004.48,0007.09,0004.38
2023-07-21 11:58:00,SystemResetWarning,0838.8,5.00,000.00,030.2,028.8,000.0,038.7,031.7,31.5,0000.0,0004.37,0006.84,0004.30
2023-07-21 11:59:00,SystemResetWarning,0838.8,5.01,000.00,030.2,028.8,000.0,038.7,031.7,31.4,0000.0,0004.30,0006.76,0004.23
